Flag for Denmark Weather past 2 weeks in Hirtshals, Denmark

Now
38 °F

Chilly.


Feels Like: 30 °F
Forecast: 39 / 42 °F
Wind: 12 mph from South

Location: Aalborg

Current Time: Jan 26, 2015 at 6:04:40 AM

Latest Report: Jan 26, 2015 at 5:00 AM


Visibility: 1 mi

Pressure: 29.95 "Hg

Humidity: 98%

Dew point: 37 °F

Location of HirtshalsLocation

Historic Weather in Hirtshals — Graph

°F

Hirtshals temperature yesterday

Maximum temperature yesterday: 39 °F (at 2:00 PM)
Minimum temperature yesterday: 30 °F (at 7:00 AM)
Average temperature yesterday: 34 °F

Past Weeks' High & Low Weather Summary

 TemperatureHumidityPressure
High46 °F (Jan 12, 5:00 PM)100% (Jan 21, 1:00 AM)30.26 "Hg (Jan 21, 1:00 AM)
Low28 °F (Jan 23, 11:00 AM)69% (Jan 11, 4:00 AM)29.06 "Hg (Jan 15, 11:00 PM)
Average37 °F91%29.71 "Hg
* Reported Jan 11 3:00 AM — Jan 26 3:00 AM, Hirtshals, Weather by CustomWeather, © 2014

Note: Actual official high and low records may vary slightly from our data, if they occured in-between our weather recording intervals... More about our weather records

Advertising

Hirtshals weather history for previous 24 hours

 ConditionsComfort  
Time TempWeatherWind HumidityBarometerVisibility
3:00 AM
Jan 26
37 °FChilly.13 mph97%30.02 "Hg2 mi
2:00 AM38 °FChilly.14 mph96%30.04 "Hg2 mi
1:00 AM38 °FPassing clouds.10 mph97%30.06 "Hg9 mi
12:00 AM37 °FChilly.9 mph98%30.10 "Hg2 mi
11:00 PM
Jan 25
36 °FChilly.8 mph98%30.12 "Hg2 mi
10:00 PM36 °FOvercast.7 mph97%30.14 "Hg9 mi
9:00 PM36 °FChilly.1 mph97%30.16 "Hg2 mi
8:00 PM34 °FChilly.3 mph97%30.16 "Hg2 mi
7:00 PM34 °FOvercast.3 mph96%30.17 "Hg12 mi
6:00 PM33 °FChilly.2 mph94%30.17 "Hg1 mi
5:00 PM35 °FChilly.1 mph93%30.16 "Hg2 mi
4:00 PM35 °FPartly sunny.5 mph93%30.17 "Hg12 mi
3:00 PM36 °FChilly.2 mph89%30.16 "Hg2 mi
2:00 PM39 °FChilly.1 mph84%30.16 "Hg2 mi
1:00 PM37 °FScattered clouds.1 mph86%30.16 "Hg16 mi
12:00 PM37 °FChilly.No wind87%30.16 "Hg2 mi
11:00 AM33 °FChilly.2 mph89%30.16 "Hg2 mi
10:00 AM30 °FPassing clouds.6 mph90%30.14 "Hg16 mi
9:00 AM31 °FChilly.2 mph86%30.12 "Hg2 mi
8:00 AM33 °FChilly.7 mph81%30.10 "Hg2 mi
7:00 AM30 °FPassing clouds.7 mph85%30.09 "Hg12 mi
6:00 AM35 °FChilly.7 mph79%30.06 "Hg2 mi
Weather by CustomWeather, © 2014

See weather overviewHow to use our weather pages